COSMOS 970 DEB, 64992

Orbit data source: Space-Track

COSMOS 970 DEB, 64992 is space debris in LEO originally from a launch on Wed, 21 Dec 1977 UTC launched from the Tyuratam Missile And Space Complex (TTMTR). Debris objects in space refer to the collection of defunct objects orbiting the Earth. Examples of debris include non-operational satellites, rocket bodies, and fragments generated from explosions, collisions, or faulty payload assembly.

Loading next visibility...
Identifier
64992, 1977-121DD
Orbit
LEO
Country
Flag of CISCIS
Related business
Manufacturer
Unknown
Mission
Spacecraft
Bus & Motor
Unknown
Mass
Unknown
Launch date (UTC)
1977-12-21 (48 years ago)
Launch vehicle
Unknown
Launch site
Tyuratam Missile And Space Complex (TTMTR)
Object type
Payload
Rocket body
Debris
Shape & HBR
Unknown shape, 0.1 m
Radar Cross Section
Medium (>0.1 m² and <1 m²)

Expand to show TLE details & history
Last TLE update: 2 days ago

TLE from 2 days ago
0 COSMOS 970 DEB
1 64992U 77121DD  26169.57978323 -.00000015  00000-0  85628-4 0  9996
2 64992  65.8493 236.4027 0116384 293.4812 135.4512 13.54537031621702
Epoch: 2026-06-18T13:54Z
TLE epoch observation values (Epoch: 2026-06-18T13:54:53.271Z)
Latitude
59.05945°
Longitude
168.94845°
Altitude
1,126.857 km
Speed
7.265 km/s
True Right ascension
18h 57m 57s
True Declination
58° 54' 54"
Sunlit
Object was in daylight at epoch
Visualization orbit readout
Latitude
Unknown
Longitude
Unknown
Altitude
Unknown
Speed
Unknown
Apparent Right ascension
Unknown
Apparent Declination
Unknown
Sunlit
N/A
Visualization observer readout
Local Sidereal Time
08:33:01
Azimuth
Unknown
Elevation
Unknown
Doppler factor
Unknown
Orbital elements
Apogee altitude
1,140.642 km
Perigee altitude
967.642 km
Semi-major axis
7,432.279 km
Eccentricity
0.01164
Inclination
65.8493°
RAAN
236.4027°
Arg. of periapsis
293.4812°
True anomaly
136.37714°
Mean anomaly
135.4512°
Eccentric anomaly
135.91513°
Mean motion
3.38735 °/min
Orbital period
106.28 mins
BSTAR
0.000085628
Loading maneuver chart data...
Computing Atmospheric mass density...
Loading historical data...
Loading historical data...
Loading historical data...
Loading historical data...
Loading historical data...
Loading historical data...
Loading historical data...

Documentation

Showing up to 5 results
|